Location: Unspecified
(35.6961°N, 0.0000°E)
Time: 08:43:34
(UTC+00:00)

Vanguard 3 - Pass Details

Date: 04 June 2019
Orbit: 508 x 3263 km, 33.3° (Epoch: 25 June)

Event Time Altitude Azimuth Distance (km) Brightness Sun altitude
Rises 21:05:54 0° 274° (W) 2,944 10.7 -18.9°
Reaches altitude 10° 21:07:51 10° 268° (W) 2,203 9.9 -19.2°
Maximum altitude 21:12:45 52° 193° (SSW) 1,195 7.7 -19.9°
Enters shadow 21:15:42 33° 137° (SE) 1,833 8.3 -20.2°
Drops below altitude 10° 21:21:02 10° 120° (ESE) 3,675 - -20.9°
Sets 21:25:14 0° 116° (ESE) 5,140 - -21.5°
